Date_Time,Julian_Date,Latitude,Longitude,Instrument_Depth,U,V,Speed,Direction
(yyyy-mm-dd hh:mn:ss UTC),(JD),(+ deg. North),(+ deg. East),(m),(cm/s),(cm/s),(cm/s),(deg True)
1984-08-27 17:30:00 UTC,2445940.229167,28.7467,-95.2267,0192,-1.22,-13.95,14.0000,185.0000
1984-08-27 18:00:00 UTC,2445940.250000,28.7467,-95.2267,0192,-0.26,-15.00,15.0000,181.0000
1984-08-27 18:30:00 UTC,2445940.270833,28.7467,-95.2267,0192,1.19,-16.96,17.0000,176.0000
1984-08-27 19:00:00 UTC,2445940.291667,28.7467,-95.2267,0192,3.63,-18.65,19.0000,169.0000
1984-08-27 19:30:00 UTC,2445940.312500,28.7467,-95.2267,0192,6.06,-21.15,22.0000,164.0000
1984-08-27 20:00:00 UTC,2445940.333333,28.7467,-95.2267,0192,7.52,-20.67,22.0000,160.0000
1984-08-27 20:30:00 UTC,2445940.354167,28.7467,-95.2267,0192,7.88,-20.54,22.0000,159.0000
1984-08-27 21:00:00 UTC,2445940.375000,28.7467,-95.2267,0192,8.54,-19.18,21.0000,156.0000
1984-08-27 21:30:00 UTC,2445940.395833,28.7467,-95.2267,0192,9.21,-16.62,19.0000,151.0000
1984-08-27 22:00:00 UTC,2445940.416667,28.7467,-95.2267,0192,9.51,-14.09,17.0000,146.0000
1984-08-27 22:30:00 UTC,2445940.437500,28.7467,-95.2267,0192,8.60,-12.29,15.0000,145.0000
1984-08-27 23:00:00 UTC,2445940.458333,28.7467,-95.2267,0192,7.08,-10.90,13.0000,147.0000
1984-08-27 23:30:00 UTC,2445940.479167,28.7467,-95.2267,0192,5.67,-9.43,11.0000,149.0000
1984-08-28 00:00:00 UTC,2445940.500000,28.7467,-95.2267,0192,5.30,-8.48,10.0000,148.0000
1984-08-28 00:30:00 UTC,2445940.520833,28.7467,-95.2267,0192,4.47,-6.63,8.0000,146.0000
1984-08-28 01:00:00 UTC,2445940.541667,28.7467,-95.2267,0192,3.39,-6.12,7.0000,151.0000
1984-08-28 01:30:00 UTC,2445940.562500,28.7467,-95.2267,0192,2.74,-6.44,7.0000,157.0000
1984-08-28 02:00:00 UTC,2445940.583333,28.7467,-95.2267,0192,2.51,-6.54,7.0000,159.0000
1984-08-28 02:30:00 UTC,2445940.604167,28.7467,-95.2267,0192,2.16,-6.66,7.0000,162.0000
1984-08-28 03:00:00 UTC,2445940.625000,28.7467,-95.2267,0192,2.07,-7.73,8.0000,165.0000
1984-08-28 03:30:00 UTC,2445940.645833,28.7467,-95.2267,0192,1.53,-7.85,8.0000,169.0000
1984-08-28 04:00:00 UTC,2445940.666667,28.7467,-95.2267,0192,0.87,-9.96,10.0000,175.0000
1984-08-28 04:30:00 UTC,2445940.687500,28.7467,-95.2267,0192,0.63,-11.98,12.0000,177.0000
1984-08-28 05:00:00 UTC,2445940.708333,28.7467,-95.2267,0192,0.68,-12.98,13.0000,177.0000
1984-08-28 05:30:00 UTC,2445940.729167,28.7467,-95.2267,0192,1.22,-13.95,14.0000,175.0000
1984-08-28 06:00:00 UTC,2445940.750000,28.7467,-95.2267,0192,2.35,-14.82,15.0000,171.0000
1984-08-28 06:30:00 UTC,2445940.770833,28.7467,-95.2267,0192,3.05,-15.71,16.0000,169.0000
1984-08-28 07:00:00 UTC,2445940.791667,28.7467,-95.2267,0192,3.33,-15.65,16.0000,168.0000
1984-08-28 07:30:00 UTC,2445940.812500,28.7467,-95.2267,0192,4.11,-16.50,17.0000,166.0000
1984-08-28 08:00:00 UTC,2445940.833333,28.7467,-95.2267,0192,4.35,-17.47,18.0000,166.0000
1984-08-28 08:30:00 UTC,2445940.854167,28.7467,-95.2267,0192,3.82,-19.63,20.0000,169.0000
1984-08-28 09:00:00 UTC,2445940.875000,28.7467,-95.2267,0192,3.29,-20.74,21.0000,171.0000
1984-08-28 09:30:00 UTC,2445940.895833,28.7467,-95.2267,0192,3.95,-18.58,19.0000,168.0000
1984-08-28 10:00:00 UTC,2445940.916667,28.7467,-95.2267,0192,5.53,-16.07,17.0000,161.0000
1984-08-28 10:30:00 UTC,2445940.937500,28.7467,-95.2267,0192,5.69,-12.79,14.0000,156.0000
1984-08-28 11:00:00 UTC,2445940.958333,28.7467,-95.2267,0192,4.65,-9.97,11.0000,155.0000
1984-08-28 11:30:00 UTC,2445940.979167,28.7467,-95.2267,0192,2.93,-8.51,9.0000,161.0000
1984-08-28 12:00:00 UTC,2445941.000000,28.7467,-95.2267,0192,1.56,-8.86,9.0000,170.0000
1984-08-28 12:30:00 UTC,2445941.020833,28.7467,-95.2267,0192,0.00,-9.00,9.0000,180.0000
1984-08-28 13:00:00 UTC,2445941.041667,28.7467,-95.2267,0192,-2.18,-8.73,9.0000,194.0000
1984-08-28 13:30:00 UTC,2445941.062500,28.7467,-95.2267,0192,-4.85,-8.75,10.0000,209.0000
1984-08-28 14:00:00 UTC,2445941.083333,28.7467,-95.2267,0192,-7.64,-10.52,13.0000,216.0000
1984-08-28 14:30:00 UTC,2445941.104167,28.7467,-95.2267,0192,-8.03,-11.47,14.0000,215.0000
1984-08-28 15:00:00 UTC,2445941.125000,28.7467,-95.2267,0192,-7.50,-12.99,15.0000,210.0000
1984-08-28 15:30:00 UTC,2445941.145833,28.7467,-95.2267,0192,-6.51,-14.62,16.0000,204.0000
1984-08-28 16:00:00 UTC,2445941.166667,28.7467,-95.2267,0192,-5.26,-17.21,18.0000,197.0000
1984-08-28 16:30:00 UTC,2445941.187500,28.7467,-95.2267,0192,-3.65,-20.68,21.0000,190.0000
1984-08-28 17:00:00 UTC,2445941.208333,28.7467,-95.2267,0192,-2.40,-22.87,23.0000,186.0000
1984-08-28 17:30:00 UTC,2445941.229167,28.7467,-95.2267,0192,-1.31,-24.97,25.0000,183.0000
1984-08-28 18:00:00 UTC,2445941.250000,28.7467,-95.2267,0192,0.00,-26.00,26.0000,180.0000
1984-08-28 18:30:00 UTC,2445941.270833,28.7467,-95.2267,0192,1.36,-25.96,26.0000,177.0000
1984-08-28 19:00:00 UTC,2445941.291667,28.7467,-95.2267,0192,2.72,-25.86,26.0000,174.0000
1984-08-28 19:30:00 UTC,2445941.312500,28.7467,-95.2267,0192,1.74,-24.94,25.0000,176.0000
1984-08-28 20:00:00 UTC,2445941.333333,28.7467,-95.2267,0192,0.44,-25.00,25.0000,179.0000
1984-08-28 20:30:00 UTC,2445941.354167,28.7467,-95.2267,0192,0.42,-24.00,24.0000,179.0000
1984-08-28 21:00:00 UTC,2445941.375000,28.7467,-95.2267,0192,1.60,-22.94,23.0000,176.0000
1984-08-28 21:30:00 UTC,2445941.395833,28.7467,-95.2267,0192,3.13,-19.75,20.0000,171.0000
1984-08-28 22:00:00 UTC,2445941.416667,28.7467,-95.2267,0192,4.05,-17.54,18.0000,167.0000
1984-08-28 22:30:00 UTC,2445941.437500,28.7467,-95.2267,0192,4.11,-16.50,17.0000,166.0000
1984-08-28 23:00:00 UTC,2445941.458333,28.7467,-95.2267,0192,3.63,-14.55,15.0000,166.0000
1984-08-28 23:30:00 UTC,2445941.479167,28.7467,-95.2267,0192,2.48,-12.76,13.0000,169.0000
1984-08-29 00:00:00 UTC,2445941.500000,28.7467,-95.2267,0192,0.96,-10.96,11.0000,175.0000
1984-08-29 00:30:00 UTC,2445941.520833,28.7467,-95.2267,0192,-0.52,-9.99,10.0000,183.0000
1984-08-29 01:00:00 UTC,2445941.541667,28.7467,-95.2267,0192,-1.39,-9.90,10.0000,188.0000
1984-08-29 01:30:00 UTC,2445941.562500,28.7467,-95.2267,0192,-2.08,-9.78,10.0000,192.0000
1984-08-29 02:00:00 UTC,2445941.583333,28.7467,-95.2267,0192,-2.85,-10.63,11.0000,195.0000
1984-08-29 02:30:00 UTC,2445941.604167,28.7467,-95.2267,0192,-2.66,-10.67,11.0000,194.0000
1984-08-29 03:00:00 UTC,2445941.625000,28.7467,-95.2267,0192,-2.08,-11.82,12.0000,190.0000
1984-08-29 03:30:00 UTC,2445941.645833,28.7467,-95.2267,0192,-1.81,-12.87,13.0000,188.0000
1984-08-29 04:00:00 UTC,2445941.666667,28.7467,-95.2267,0192,-1.22,-13.95,14.0000,185.0000
1984-08-29 04:30:00 UTC,2445941.687500,28.7467,-95.2267,0192,-0.79,-14.98,15.0000,183.0000
1984-08-29 05:00:00 UTC,2445941.708333,28.7467,-95.2267,0192,0.28,-16.00,16.0000,179.0000
1984-08-29 05:30:00 UTC,2445941.729167,28.7467,-95.2267,0192,0.89,-16.98,17.0000,177.0000
1984-08-29 06:00:00 UTC,2445941.750000,28.7467,-95.2267,0192,0.94,-17.98,18.0000,177.0000
1984-08-29 06:30:00 UTC,2445941.770833,28.7467,-95.2267,0192,1.66,-18.93,19.0000,175.0000
1984-08-29 07:00:00 UTC,2445941.791667,28.7467,-95.2267,0192,2.78,-19.81,20.0000,172.0000
1984-08-29 07:30:00 UTC,2445941.812500,28.7467,-95.2267,0192,2.56,-20.84,21.0000,173.0000
1984-08-29 08:00:00 UTC,2445941.833333,28.7467,-95.2267,0192,2.30,-21.88,22.0000,174.0000
1984-08-29 08:30:00 UTC,2445941.854167,28.7467,-95.2267,0192,3.06,-21.79,22.0000,172.0000
1984-08-29 09:00:00 UTC,2445941.875000,28.7467,-95.2267,0192,4.01,-20.61,21.0000,169.0000
1984-08-29 09:30:00 UTC,2445941.895833,28.7467,-95.2267,0192,4.16,-19.56,20.0000,168.0000
1984-08-29 10:00:00 UTC,2445941.916667,28.7467,-95.2267,0192,2.82,-17.78,18.0000,171.0000
1984-08-29 10:30:00 UTC,2445941.937500,28.7467,-95.2267,0192,1.78,-16.91,17.0000,174.0000
1984-08-29 11:00:00 UTC,2445941.958333,28.7467,-95.2267,0192,0.79,-14.98,15.0000,177.0000
1984-08-29 11:30:00 UTC,2445941.979167,28.7467,-95.2267,0192,-0.49,-13.99,14.0000,182.0000
1984-08-29 12:00:00 UTC,2445942.000000,28.7467,-95.2267,0192,-1.95,-13.86,14.0000,188.0000
1984-08-29 12:30:00 UTC,2445942.020833,28.7467,-95.2267,0192,-2.92,-12.67,13.0000,193.0000
1984-08-29 13:00:00 UTC,2445942.041667,28.7467,-95.2267,0192,-3.58,-12.50,13.0000,196.0000
1984-08-29 13:30:00 UTC,2445942.062500,28.7467,-95.2267,0192,-4.45,-12.22,13.0000,200.0000
1984-08-29 14:00:00 UTC,2445942.083333,28.7467,-95.2267,0192,-5.49,-11.78,13.0000,205.0000
1984-08-29 14:30:00 UTC,2445942.104167,28.7467,-95.2267,0192,-6.36,-12.47,14.0000,207.0000
1984-08-29 15:00:00 UTC,2445942.125000,28.7467,-95.2267,0192,-6.14,-12.58,14.0000,206.0000
1984-08-29 15:30:00 UTC,2445942.145833,28.7467,-95.2267,0192,-5.47,-12.89,14.0000,203.0000
1984-08-29 16:00:00 UTC,2445942.166667,28.7467,-95.2267,0192,-4.88,-14.18,15.0000,199.0000
1984-08-29 16:30:00 UTC,2445942.187500,28.7467,-95.2267,0192,-4.68,-15.30,16.0000,197.0000
1984-08-29 17:00:00 UTC,2445942.208333,28.7467,-95.2267,0192,-4.40,-16.42,17.0000,195.0000
1984-08-29 17:30:00 UTC,2445942.229167,28.7467,-95.2267,0192,-3.60,-15.59,16.0000,193.0000
1984-08-29 18:00:00 UTC,2445942.250000,28.7467,-95.2267,0192,-2.78,-15.76,16.0000,190.0000
1984-08-29 18:30:00 UTC,2445942.270833,28.7467,-95.2267,0192,-3.13,-17.73,18.0000,190.0000
1984-08-29 19:00:00 UTC,2445942.291667,28.7467,-95.2267,0192,-2.32,-18.86,19.0000,187.0000
1984-08-29 19:30:00 UTC,2445942.312500,28.7467,-95.2267,0192,-0.99,-18.97,19.0000,183.0000
1984-08-29 20:00:00 UTC,2445942.333333,28.7467,-95.2267,0192,-0.35,-20.00,20.0000,181.0000
1984-08-29 20:30:00 UTC,2445942.354167,28.7467,-95.2267,0192,0.00,-21.00,21.0000,180.0000
1984-08-29 21:00:00 UTC,2445942.375000,28.7467,-95.2267,0192,0.35,-20.00,20.0000,179.0000
1984-08-29 21:30:00 UTC,2445942.395833,28.7467,-95.2267,0192,1.66,-18.93,19.0000,175.0000
1984-08-29 22:00:00 UTC,2445942.416667,28.7467,-95.2267,0192,2.51,-17.82,18.0000,172.0000
1984-08-29 22:30:00 UTC,2445942.437500,28.7467,-95.2267,0192,2.51,-17.82,18.0000,172.0000
1984-08-29 23:00:00 UTC,2445942.458333,28.7467,-95.2267,0192,2.23,-15.84,16.0000,172.0000
1984-08-29 23:30:00 UTC,2445942.479167,28.7467,-95.2267,0192,2.09,-14.85,15.0000,172.0000
1984-08-30 00:00:00 UTC,2445942.500000,28.7467,-95.2267,0192,1.71,-13.90,14.0000,173.0000
1984-08-30 00:30:00 UTC,2445942.520833,28.7467,-95.2267,0192,0.23,-13.00,13.0000,179.0000
1984-08-30 01:00:00 UTC,2445942.541667,28.7467,-95.2267,0192,-1.25,-11.93,12.0000,186.0000
1984-08-30 01:30:00 UTC,2445942.562500,28.7467,-95.2267,0192,-1.91,-10.83,11.0000,190.0000
1984-08-30 02:00:00 UTC,2445942.583333,28.7467,-95.2267,0192,-2.47,-10.72,11.0000,193.0000
1984-08-30 02:30:00 UTC,2445942.604167,28.7467,-95.2267,0192,-2.90,-11.64,12.0000,194.0000
1984-08-30 03:00:00 UTC,2445942.625000,28.7467,-95.2267,0192,-2.92,-12.67,13.0000,193.0000
1984-08-30 03:30:00 UTC,2445942.645833,28.7467,-95.2267,0192,-2.43,-13.79,14.0000,190.0000
1984-08-30 04:00:00 UTC,2445942.666667,28.7467,-95.2267,0192,-1.71,-13.90,14.0000,187.0000
1984-08-30 04:30:00 UTC,2445942.687500,28.7467,-95.2267,0192,-1.83,-14.89,15.0000,187.0000
1984-08-30 05:00:00 UTC,2445942.708333,28.7467,-95.2267,0192,-2.07,-16.87,17.0000,187.0000
1984-08-30 05:30:00 UTC,2445942.729167,28.7467,-95.2267,0192,-1.48,-16.94,17.0000,185.0000
1984-08-30 06:00:00 UTC,2445942.750000,28.7467,-95.2267,0192,-0.31,-18.00,18.0000,181.0000
1984-08-30 06:30:00 UTC,2445942.770833,28.7467,-95.2267,0192,0.63,-17.99,18.0000,178.0000
1984-08-30 07:00:00 UTC,2445942.791667,28.7467,-95.2267,0192,0.31,-18.00,18.0000,179.0000
1984-08-30 07:30:00 UTC,2445942.812500,28.7467,-95.2267,0192,0.30,-17.00,17.0000,179.0000
1984-08-30 08:00:00 UTC,2445942.833333,28.7467,-95.2267,0192,0.79,-14.98,15.0000,177.0000
1984-08-30 08:30:00 UTC,2445942.854167,28.7467,-95.2267,0192,1.83,-14.89,15.0000,173.0000
1984-08-30 09:00:00 UTC,2445942.875000,28.7467,-95.2267,0192,2.60,-14.77,15.0000,170.0000
1984-08-30 09:30:00 UTC,2445942.895833,28.7467,-95.2267,0192,2.86,-14.72,15.0000,169.0000
1984-08-30 10:00:00 UTC,2445942.916667,28.7467,-95.2267,0192,2.67,-13.74,14.0000,169.0000
1984-08-30 10:30:00 UTC,2445942.937500,28.7467,-95.2267,0192,2.26,-12.80,13.0000,170.0000
1984-08-30 11:00:00 UTC,2445942.958333,28.7467,-95.2267,0192,0.63,-11.98,12.0000,177.0000
1984-08-30 11:30:00 UTC,2445942.979167,28.7467,-95.2267,0192,-0.77,-10.97,11.0000,184.0000
1984-08-30 12:00:00 UTC,2445943.000000,28.7467,-95.2267,0192,-1.53,-10.89,11.0000,188.0000
1984-08-30 12:30:00 UTC,2445943.020833,28.7467,-95.2267,0192,-1.74,-9.85,10.0000,190.0000
1984-08-30 13:00:00 UTC,2445943.041667,28.7467,-95.2267,0192,-2.59,-9.66,10.0000,195.0000
1984-08-30 13:30:00 UTC,2445943.062500,28.7467,-95.2267,0192,-3.75,-9.27,10.0000,202.0000
1984-08-30 14:00:00 UTC,2445943.083333,28.7467,-95.2267,0192,-5.16,-9.71,11.0000,208.0000
1984-08-30 14:30:00 UTC,2445943.104167,28.7467,-95.2267,0192,-5.45,-8.39,10.0000,213.0000
1984-08-30 15:00:00 UTC,2445943.125000,28.7467,-95.2267,0192,-5.16,-7.37,9.0000,215.0000
1984-08-30 15:30:00 UTC,2445943.145833,28.7467,-95.2267,0192,-5.88,-8.09,10.0000,216.0000
1984-08-30 16:00:00 UTC,2445943.166667,28.7467,-95.2267,0192,-6.15,-9.12,11.0000,214.0000
1984-08-30 16:30:00 UTC,2445943.187500,28.7467,-95.2267,0192,-5.50,-9.53,11.0000,210.0000
1984-08-30 17:00:00 UTC,2445943.208333,28.7467,-95.2267,0192,-4.65,-9.97,11.0000,205.0000
1984-08-30 17:30:00 UTC,2445943.229167,28.7467,-95.2267,0192,-4.10,-11.28,12.0000,200.0000
1984-08-30 18:00:00 UTC,2445943.250000,28.7467,-95.2267,0192,-3.14,-12.61,13.0000,194.0000
1984-08-30 18:30:00 UTC,2445943.270833,28.7467,-95.2267,0192,-2.67,-13.74,14.0000,191.0000
1984-08-30 19:00:00 UTC,2445943.291667,28.7467,-95.2267,0192,-2.60,-14.77,15.0000,190.0000
1984-08-30 19:30:00 UTC,2445943.312500,28.7467,-95.2267,0192,-1.57,-14.92,15.0000,186.0000
1984-08-30 20:00:00 UTC,2445943.333333,28.7467,-95.2267,0192,-0.28,-16.00,16.0000,181.0000
1984-08-30 20:30:00 UTC,2445943.354167,28.7467,-95.2267,0192,1.12,-15.96,16.0000,176.0000
1984-08-30 21:00:00 UTC,2445943.375000,28.7467,-95.2267,0192,1.95,-15.88,16.0000,173.0000
1984-08-30 21:30:00 UTC,2445943.395833,28.7467,-95.2267,0192,2.37,-16.83,17.0000,172.0000
1984-08-30 22:00:00 UTC,2445943.416667,28.7467,-95.2267,0192,2.66,-16.79,17.0000,171.0000
1984-08-30 22:30:00 UTC,2445943.437500,28.7467,-95.2267,0192,3.33,-15.65,16.0000,168.0000
1984-08-30 23:00:00 UTC,2445943.458333,28.7467,-95.2267,0192,4.39,-14.34,15.0000,163.0000
1984-08-30 23:30:00 UTC,2445943.479167,28.7467,-95.2267,0192,4.45,-12.22,13.0000,160.0000
1984-08-31 00:00:00 UTC,2445943.500000,28.7467,-95.2267,0192,4.10,-11.28,12.0000,160.0000
1984-08-31 00:30:00 UTC,2445943.520833,28.7467,-95.2267,0192,3.03,-10.57,11.0000,164.0000
1984-08-31 01:00:00 UTC,2445943.541667,28.7467,-95.2267,0192,2.42,-9.70,10.0000,166.0000
1984-08-31 01:30:00 UTC,2445943.562500,28.7467,-95.2267,0192,2.42,-9.70,10.0000,166.0000
1984-08-31 02:00:00 UTC,2445943.583333,28.7467,-95.2267,0192,2.33,-8.69,9.0000,165.0000
1984-08-31 02:30:00 UTC,2445943.604167,28.7467,-95.2267,0192,1.80,-7.79,8.0000,167.0000
1984-08-31 03:00:00 UTC,2445943.625000,28.7467,-95.2267,0192,1.34,-6.87,7.0000,169.0000
1984-08-31 03:30:00 UTC,2445943.645833,28.7467,-95.2267,0192,1.46,-6.85,7.0000,168.0000
1984-08-31 04:00:00 UTC,2445943.666667,28.7467,-95.2267,0192,1.35,-5.85,6.0000,167.0000
1984-08-31 04:30:00 UTC,2445943.687500,28.7467,-95.2267,0192,0.63,-5.97,6.0000,174.0000
1984-08-31 05:00:00 UTC,2445943.708333,28.7467,-95.2267,0192,-0.24,-7.00,7.0000,182.0000
1984-08-31 05:30:00 UTC,2445943.729167,28.7467,-95.2267,0192,-0.42,-7.99,8.0000,183.0000
1984-08-31 06:00:00 UTC,2445943.750000,28.7467,-95.2267,0192,0.00,-9.00,9.0000,180.0000
1984-08-31 06:30:00 UTC,2445943.770833,28.7467,-95.2267,0192,0.52,-9.99,10.0000,177.0000
1984-08-31 07:00:00 UTC,2445943.791667,28.7467,-95.2267,0192,0.96,-10.96,11.0000,175.0000
1984-08-31 07:30:00 UTC,2445943.812500,28.7467,-95.2267,0192,1.56,-9.88,10.0000,171.0000
1984-08-31 08:00:00 UTC,2445943.833333,28.7467,-95.2267,0192,2.92,-9.56,10.0000,163.0000
1984-08-31 08:30:00 UTC,2445943.854167,28.7467,-95.2267,0192,4.38,-8.99,10.0000,154.0000
1984-08-31 09:00:00 UTC,2445943.875000,28.7467,-95.2267,0192,5.50,-9.53,11.0000,150.0000
1984-08-31 09:30:00 UTC,2445943.895833,28.7467,-95.2267,0192,5.67,-9.43,11.0000,149.0000
1984-08-31 10:00:00 UTC,2445943.916667,28.7467,-95.2267,0192,5.99,-9.23,11.0000,147.0000
1984-08-31 10:30:00 UTC,2445943.937500,28.7467,-95.2267,0192,5.88,-8.09,10.0000,144.0000
1984-08-31 11:00:00 UTC,2445943.958333,28.7467,-95.2267,0192,5.90,-6.79,9.0000,139.0000
1984-08-31 11:30:00 UTC,2445943.979167,28.7467,-95.2267,0192,4.95,-4.95,7.0000,135.0000
1984-08-31 12:00:00 UTC,2445944.000000,28.7467,-95.2267,0192,3.15,-2.46,4.0000,128.0000
1984-08-31 12:30:00 UTC,2445944.020833,28.7467,-95.2267,0192,1.73,-1.00,2.0000,120.0000
1984-08-31 13:00:00 UTC,2445944.041667,28.7467,-95.2267,0192,0.00,-0.00,0.0000,115.0000
1984-08-31 13:30:00 UTC,2445944.062500,28.7467,-95.2267,0192,-0.00,0.00,0.0000,299.0000
1984-08-31 14:00:00 UTC,2445944.083333,28.7467,-95.2267,0192,0.00,0.00,0.0000,12.0000
1984-08-31 14:30:00 UTC,2445944.104167,28.7467,-95.2267,0192,-0.00,-0.00,0.0000,189.0000
1984-08-31 15:00:00 UTC,2445944.125000,28.7467,-95.2267,0192,-0.24,-1.99,2.0000,187.0000
1984-08-31 15:30:00 UTC,2445944.145833,28.7467,-95.2267,0192,-0.35,-3.98,4.0000,185.0000
1984-08-31 16:00:00 UTC,2445944.166667,28.7467,-95.2267,0192,-0.35,-4.99,5.0000,184.0000
1984-08-31 16:30:00 UTC,2445944.187500,28.7467,-95.2267,0192,-0.78,-4.94,5.0000,189.0000
1984-08-31 17:00:00 UTC,2445944.208333,28.7467,-95.2267,0192,-1.46,-4.78,5.0000,197.0000
1984-08-31 17:30:00 UTC,2445944.229167,28.7467,-95.2267,0192,-1.95,-4.60,5.0000,203.0000
1984-08-31 18:00:00 UTC,2445944.250000,28.7467,-95.2267,0192,-2.50,-4.33,5.0000,210.0000
1984-08-31 18:30:00 UTC,2445944.270833,28.7467,-95.2267,0192,-2.94,-4.05,5.0000,216.0000
1984-08-31 19:00:00 UTC,2445944.291667,28.7467,-95.2267,0192,-1.68,-2.49,3.0000,214.0000
1984-08-31 19:30:00 UTC,2445944.312500,28.7467,-95.2267,0192,-1.03,-1.71,2.0000,211.0000
1984-08-31 20:00:00 UTC,2445944.333333,28.7467,-95.2267,0192,-1.23,-1.58,2.0000,218.0000
1984-08-31 20:30:00 UTC,2445944.354167,28.7467,-95.2267,0192,-1.18,-1.62,2.0000,216.0000
1984-08-31 21:00:00 UTC,2445944.375000,28.7467,-95.2267,0192,-0.47,-0.88,1.0000,208.0000
1984-08-31 21:30:00 UTC,2445944.395833,28.7467,-95.2267,0192,-0.00,0.00,0.0000,274.0000
1984-08-31 22:00:00 UTC,2445944.416667,28.7467,-95.2267,0192,-0.00,0.00,0.0000,275.0000
1984-08-31 22:30:00 UTC,2445944.437500,28.7467,-95.2267,0192,-0.00,0.00,0.0000,274.0000
1984-08-31 23:00:00 UTC,2445944.458333,28.7467,-95.2267,0192,-0.00,0.00,0.0000,278.0000
1984-08-31 23:30:00 UTC,2445944.479167,28.7467,-95.2267,0192,-0.87,-0.50,1.0000,240.0000
1984-09-01 00:00:00 UTC,2445944.500000,28.7467,-95.2267,0192,-2.62,-3.02,4.0000,221.0000
1984-09-01 00:30:00 UTC,2445944.520833,28.7467,-95.2267,0192,-2.96,-6.34,7.0000,205.0000
1984-09-01 01:00:00 UTC,2445944.541667,28.7467,-95.2267,0192,-2.76,-9.61,10.0000,196.0000
1984-09-01 01:30:00 UTC,2445944.562500,28.7467,-95.2267,0192,-3.14,-12.61,13.0000,194.0000
1984-09-01 02:00:00 UTC,2445944.583333,28.7467,-95.2267,0192,-4.40,-16.42,17.0000,195.0000
1984-09-01 02:30:00 UTC,2445944.604167,28.7467,-95.2267,0192,-4.66,-17.39,18.0000,195.0000
1984-09-01 03:00:00 UTC,2445944.625000,28.7467,-95.2267,0192,-4.40,-16.42,17.0000,195.0000
1984-09-01 03:30:00 UTC,2445944.645833,28.7467,-95.2267,0192,-4.41,-15.38,16.0000,196.0000
1984-09-01 04:00:00 UTC,2445944.666667,28.7467,-95.2267,0192,-4.94,-15.22,16.0000,198.0000
1984-09-01 04:30:00 UTC,2445944.687500,28.7467,-95.2267,0192,-4.97,-16.26,17.0000,197.0000
1984-09-01 05:00:00 UTC,2445944.708333,28.7467,-95.2267,0192,-4.97,-16.26,17.0000,197.0000
1984-09-01 05:30:00 UTC,2445944.729167,28.7467,-95.2267,0192,-5.21,-15.13,16.0000,199.0000
1984-09-01 06:00:00 UTC,2445944.750000,28.7467,-95.2267,0192,-5.73,-14.94,16.0000,201.0000
1984-09-01 06:30:00 UTC,2445944.770833,28.7467,-95.2267,0192,-5.73,-14.94,16.0000,201.0000
1984-09-01 07:00:00 UTC,2445944.791667,28.7467,-95.2267,0192,-5.47,-15.04,16.0000,200.0000
1984-09-01 07:30:00 UTC,2445944.812500,28.7467,-95.2267,0192,-5.13,-14.10,15.0000,200.0000
1984-09-01 08:00:00 UTC,2445944.833333,28.7467,-95.2267,0192,-5.13,-14.10,15.0000,200.0000
1984-09-01 08:30:00 UTC,2445944.854167,28.7467,-95.2267,0192,-4.64,-14.27,15.0000,198.0000
1984-09-01 09:00:00 UTC,2445944.875000,28.7467,-95.2267,0192,-4.68,-15.30,16.0000,197.0000
1984-09-01 09:30:00 UTC,2445944.895833,28.7467,-95.2267,0192,-5.21,-15.13,16.0000,199.0000
1984-09-01 10:00:00 UTC,2445944.916667,28.7467,-95.2267,0192,-5.73,-14.94,16.0000,201.0000
1984-09-01 10:30:00 UTC,2445944.937500,28.7467,-95.2267,0192,-5.47,-15.04,16.0000,200.0000
1984-09-01 11:00:00 UTC,2445944.958333,28.7467,-95.2267,0192,-5.25,-16.17,17.0000,198.0000
1984-09-01 11:30:00 UTC,2445944.979167,28.7467,-95.2267,0192,-5.26,-17.21,18.0000,197.0000
1984-09-01 12:00:00 UTC,2445945.000000,28.7467,-95.2267,0192,-5.86,-17.02,18.0000,199.0000
1984-09-01 12:30:00 UTC,2445945.020833,28.7467,-95.2267,0192,-6.50,-17.85,19.0000,200.0000
1984-09-01 13:00:00 UTC,2445945.041667,28.7467,-95.2267,0192,-6.51,-18.91,20.0000,199.0000
1984-09-01 13:30:00 UTC,2445945.062500,28.7467,-95.2267,0192,-6.51,-18.91,20.0000,199.0000
1984-09-01 14:00:00 UTC,2445945.083333,28.7467,-95.2267,0192,-6.81,-17.74,19.0000,201.0000
1984-09-01 14:30:00 UTC,2445945.104167,28.7467,-95.2267,0192,-7.42,-17.49,19.0000,203.0000
1984-09-01 15:00:00 UTC,2445945.125000,28.7467,-95.2267,0192,-6.81,-17.74,19.0000,201.0000
1984-09-01 15:30:00 UTC,2445945.145833,28.7467,-95.2267,0192,-6.50,-17.85,19.0000,200.0000
1984-09-01 16:00:00 UTC,2445945.166667,28.7467,-95.2267,0192,-6.81,-17.74,19.0000,201.0000
1984-09-01 16:30:00 UTC,2445945.187500,28.7467,-95.2267,0192,-7.49,-18.54,20.0000,202.0000
1984-09-01 17:00:00 UTC,2445945.208333,28.7467,-95.2267,0192,-7.17,-18.67,20.0000,201.0000
1984-09-01 17:30:00 UTC,2445945.229167,28.7467,-95.2267,0192,-6.50,-17.85,19.0000,200.0000
1984-09-01 18:00:00 UTC,2445945.250000,28.7467,-95.2267,0192,-6.50,-17.85,19.0000,200.0000
1984-09-01 18:30:00 UTC,2445945.270833,28.7467,-95.2267,0192,-6.84,-18.79,20.0000,200.0000
1984-09-01 19:00:00 UTC,2445945.291667,28.7467,-95.2267,0192,-6.84,-18.79,20.0000,200.0000
1984-09-01 19:30:00 UTC,2445945.312500,28.7467,-95.2267,0192,-6.49,-19.97,21.0000,198.0000
1984-09-01 20:00:00 UTC,2445945.333333,28.7467,-95.2267,0192,-4.84,-19.41,20.0000,194.0000
1984-09-01 20:30:00 UTC,2445945.354167,28.7467,-95.2267,0192,-2.78,-19.81,20.0000,188.0000
1984-09-01 21:00:00 UTC,2445945.375000,28.7467,-95.2267,0192,-1.40,-19.95,20.0000,184.0000
1984-09-01 21:30:00 UTC,2445945.395833,28.7467,-95.2267,0192,-1.40,-19.95,20.0000,184.0000
1984-09-01 22:00:00 UTC,2445945.416667,28.7467,-95.2267,0192,-2.78,-19.81,20.0000,188.0000
1984-09-01 22:30:00 UTC,2445945.437500,28.7467,-95.2267,0192,-4.16,-19.56,20.0000,192.0000
1984-09-01 23:00:00 UTC,2445945.458333,28.7467,-95.2267,0192,-3.82,-19.63,20.0000,191.0000
1984-09-01 23:30:00 UTC,2445945.479167,28.7467,-95.2267,0192,-2.78,-19.81,20.0000,188.0000
1984-09-02 00:00:00 UTC,2445945.500000,28.7467,-95.2267,0192,-2.44,-19.85,20.0000,187.0000
1984-09-02 00:30:00 UTC,2445945.520833,28.7467,-95.2267,0192,-3.30,-18.71,19.0000,190.0000
1984-09-02 01:00:00 UTC,2445945.541667,28.7467,-95.2267,0192,-4.16,-19.56,20.0000,192.0000
1984-09-02 01:30:00 UTC,2445945.562500,28.7467,-95.2267,0192,-4.37,-20.54,21.0000,192.0000
1984-09-02 02:00:00 UTC,2445945.583333,28.7467,-95.2267,0192,-5.32,-21.35,22.0000,194.0000
1984-09-02 02:30:00 UTC,2445945.604167,28.7467,-95.2267,0192,-5.69,-21.25,22.0000,195.0000
1984-09-02 03:00:00 UTC,2445945.625000,28.7467,-95.2267,0192,-4.20,-21.60,22.0000,191.0000
1984-09-02 03:30:00 UTC,2445945.645833,28.7467,-95.2267,0192,-3.06,-21.79,22.0000,188.0000
1984-09-02 04:00:00 UTC,2445945.666667,28.7467,-95.2267,0192,-4.16,-19.56,20.0000,192.0000
1984-09-02 04:30:00 UTC,2445945.687500,28.7467,-95.2267,0192,-4.35,-17.47,18.0000,194.0000
1984-09-02 05:00:00 UTC,2445945.708333,28.7467,-95.2267,0192,-3.43,-17.67,18.0000,191.0000